Regional Weather Roundup
Issued by NWS

Home | Current Version | Previous Version | Text Only | Print | Product List | Glossary On
Versions: 1 2 3 4 5 6 7 8 9 10 11 12 13 14 15 16 17 18 19 20 21 22 23 24 25 26 27 28 29 30 31 32 33 34 35 36 37 38 39 40 41 42 43 44 45 46 47 48 49 50
794
ASUS42 KKEY 211410
RWRKEY

FLORIDA REGIONAL WEATHER ROUNDUP FOR THE FLORIDA KEYS
NATIONAL WEATHER SERVICE KEY WEST FLORIDA
1000 AM EDT THU SEP 21 2017

...SOUTH FLORIDA AND THE KEYS...

CITY           SKY/WX    TMP DP  RH WIND       PRES   REMARKS
FORT MYERS     SUNNY     83  76  79 E7        29.99R HX  91
SW REGIONAL AP MOSUNNY   82  74  76 NE9       29.99R
NAPLES         SUNNY     83  76  79 E7        29.98R HX  91
MIAMI          MOSUNNY   88  74  63 N3        29.97R HX  96
WEST KENDALL   PTSUNNY   87  75  67 N3        29.97R HX  96
HOMESTEAD      MOSUNNY   84  77  79 N6        29.97R HX  94
MARATHON       SUNNY     87  71  58 NE7       29.96R HX  93
BOCA CHICA NAS SUNNY     89  76  65 E6        29.96R HX 100
KEY WEST INTL  SUNNY     87  73  62 E5        29.97R HX  94

...INTERNATIONAL WEATHER...

CITY           SKY/WX    TMP DP  RH WIND       PRES   REMARKS
NASSAU BAHAMAS MOSUNNY   90  79  70 N9        29.95  HX 105
CANCUN MEXICO  MOSUNNY   84  77  79 E3        29.94R HX  94
COZUMEL MEXICO MOSUNNY   86  79  79 E5        29.92R HX  99

ADJACENT COASTAL WATERS...

STATION/POSITION TIME  SKY/WX   TEMP    WIND        PRES    WAVE
                                AIR SEA DIR/SP/G            HT/PER
                 (UTC)          (F)     (DEG/KT/KT) (MB)    (FT/S)
PULASKI SHOAL LI 1400            85      70/  6/  6 1015.2R
SAND KEY         1350            83                 1015.3R
LONG KEY         NOT AVBL
MOLASSES REEF    1200            83 85   10/  1/  2 1014.1
FOWEY ROCKS      1300            84 85   20/  3/  3 1015.1R
Buoy 42097       1330               85                N/A     1/ 5

$$




USA.gov is the U.S. government's official web portal to all federal, state and local government web resources and services.